CAPE
0 0 0 0 0 0 0 2 1 1 1 1 4 2 1 1 1 0 0 0 0 0 0 0 0 0 0 0 0 0 0 0 0 0 0 0 0 0 0 0 0 0 0 0 0 0 0 0 0 6 0 0 0 0
0 0 0 0 0 0 0 0 0 0 1 0 1 2 1 1 1 0 0 0 0 0 0 0 0 0 0 0 0 0 0 0 0 0 0 0 0 0 0 0 0 0 0 11 6 1 0 0 0 0 0 0 0 0
0 0 0 0 0 0 0 0 0 0 0 0 1 0 1 1 2 2 0 0 0 0 0 0 0 0 0 0 0 0 0 0 0 0 0 0 0 0 0 0 0 0 0 0 0 0 0 0 0 0 0 0 0 0
0 0 0 0 0 0 0 0 0 0 0 0 0 0 1 2 2 2 0 0 0 0 0 0 0 0 0 0 0 0 0 0 0 0 0 0 0 0 0 0 0 0 0 0 0 0 0 0 0 0 0 0 0 0
0 0 0 0 0 0 0 0 0 0 0 0 0 0 1 2 2 2 0 0 0 0 0 0 0 0 0 0 0 0 0 0 0 0 0 0 0 0 0 0 0 0 0 0 0 0 0 0 0 0 0 0 0 0
0 0 0 0 0 0 0 0 0 0 0 0 0 0 1 3 2 0 0 0 1 0 0 0 0 0 0 0 0 0 0 0 0 0 0 0 0 0 0 0 0 0 0 0 0 0 0 0 0 0 0 0 0 0
0 0 0 0 0 0 0 0 0 0 0 0 0 0 1 2 2 0 0 0 0 0 0 0 0 0 0 0 0 0 0 0 0 0 0 0 0 0 0 0 0 0 0 0 0 0 0 0 0 0 0 0 0 0
0 0 0 0 1 1 1 0 1 0 0 0 0 0 0 1 0 0 0 0 0 0 0 0 0 0 0 0 0 0 0 0 0 0 0 0 0 0 0 0 0 0 0 0 0 0 0 0 0 0 0 0 0 0
0 0 1 0 1 1 1 1 1 0 0 0 0 0 0 0 0 0 0 0 0 0 0 0 0 0 0 0 0 0 0 0 0 0 0 0 0 0 0 0 0 0 0 0 0 0 0 0 0 0 0 0 0 0
0 1 1 2 1 1 1 2 1 0 0 0 0 0 0 0 0 0 0 0 0 0 0 0 0 0 0 0 0 0 0 1 0 0 0 0 0 0 0 0 0 0 0 0 0 0 0 0 0 0 0 0 0 0
0 0 2 2 2 2 1 1 1 0 0 0 0 0 0 0 0 0 0 0 0 0 0 0 0 0 0 0 0 0 5 4 4 0 0 0 0 0 0 0 0 0 0 0 0 0 0 0 0 0 0 0 0 0
0 0 1 2 2 2 1 1 0 0 0 0 0 1 1 0 0 0 0 0 0 0 0 2 0 0 0 0 0 0 14 8 9 0 4 0 0 0 0 0 0 0 0 0 0 0 0 0 0 0 0 0 0 0
1 1 2 2 1 1 0 0 0 0 0 1 1 0 0 0 0 0 0 0 0 8 46 38 13 13 21 0 0 2 12 1 0 2 0 0 0 0 0 0 0 0 0 0 0 0 0 0 0 0 0 0 0 0
2 2 2 1 1 2 0 0 0 0 0 0 0 0 0 0 0 0 0 0 3 47 27 28 25 25 19 4 12 31 4 4 0 0 0 0 0 0 0 0 0 0 0 0 0 0 0 0 0 0 0 0 0 0
2 1 0 0 1 1 0 0 0 0 0 0 0 0 0 0 0 1 0 7 18 5 5 13 1 8 18 6 3 4 10 0 0 0 0 1 0 0 0 0 0 0 0 0 0 0 0 0 0 0 0 0 0 0
2 0 2 2 0 0 0 0 0 0 0 0 0 0 0 0 0 0 0 0 4 3 8 6 7 2 0 7 17 0 4 0 0 9 21 0 13 1 0 0 0 0 0 0 0 0 0 0 0 0 0 0 0 0
3 0 0 0 0 0 0 0 0 0 0 0 0 0 0 0 0 0 0 1 8 12 5 8 0 6 0 0 6 8 0 4 2 35 35 9 9 0 0 0 0 0 0 0 0 0 0 0 0 0 0 0 0 0
0 0 0 2 2 0 0 0 0 1 2 0 0 0 0 0 0 0 0 0 0 0 17 21 19 24 16 2 0 6 4 0 0 3 0 52 41 9 3 0 0 0 0 0 0 0 0 0 0 0 0 0 0 0
2 2 0 0 5 1 1 0 12 7 6 8 2 0 0 0 0 0 0 0 0 0 6 23 18 3 0 0 6 7 7 4 6 0 12 32 23 6 0 0 0 0 0 0 0 0 0 0 0 1 0 0 0 0
0 0 1 1 6 2 1 0 1 0 5 3 0 0 0 0 0 0 0 0 0 1 16 11 4 1 8 0 9 8 2 0 0 0 10 12 23 3 0 0 0 0 0 0 0 0 0 0 0 0 0 0 2 2
1 0 6 2 1 1 1 0 0 0 7 2 0 0 0 0 0 0 0 0 0 5 0 0 4 1 2 6 9 3 3 0 0 0 3 4 8 7 2 0 8 8 1 0 0 0 0 0 0 3 4 9 3 0
2 1 2 2 3 2 0 0 0 0 0 0 0 0 0 0 0 0 0 0 0 0 0 0 0 10 26 19 2 0 2 0 0 0 0 0 1 15 8 3 11 28 22 12 1 0 0 4 6 1 0 0 2 14
5 1 5 1 1 1 0 1 2 1 2 0 5 4 1 0 1 0 2 0 0 0 0 0 0 0 0 0 0 0 4 0 0 0 0 0 0 1 20 33 25 37 35 30 14 9 0 0 0 0 0 8 14 16
1 1 2 3 0 0 0 4 0 4 1 0 0 0 0 0 1 10 10 15 2 20 2 0 0 0 0 0 0 0 0 4 0 0 0 0 0 4 0 13 17 34 39 32 23 17 1 0 0 0 0 1 0 1
1 0 0 2 3 12 1 7 12 4 1 4 2 0 0 2 3 4 15 13 0 0 12 21 1 0 0 0 0 0 0 0 1 0 0 0 0 0 0 0 0 7 1 1 4 15 12 0 3 1 0 0 0 0
1 0 1 15 12 2 4 9 3 4 1 0 2 6 4 5 2 4 8 24 22 13 3 0 0 5 9 2 0 0 0 0 0 0 0 0 0 0 1 6 6 4 0 0 1 6 5 0 0 1 0 0 0 0
1 0 4 3 0 4 4 3 1 2 1 0 3 5 3 6 6 1 1 17 18 3 0 0 0 0 0 5 18 30 17 0 0 8 2 0 0 0 0 0 16 1 0 0 0 5 5 4 3 3 2 0 0 0
0 5 1 5 5 3 4 5 1 0 0 1 1 2 2 2 6 1 0 0 0 0 0 0 0 0 0 0 1 5 8 0 0 0 0 0 0 0 0 0 0 0 0 0 0 1 5 7 15 12 10 15 12 0
1 0 1 0 0 0 2 5 0 1 0 3 0 0 0 0 0 0 0 0 0 0 0 0 0 0 1 1 0 0 0 0 0 0 0 6 15 12 2 5 0 0 0 0 0 0 5 3 2 3 5 21 15 6
0 0 0 0 0 0 0 0 0 0 0 0 0 0 0 0 0 0 0 0 0 0 0 0 0 0 17 16 29 25 1 2 7 8 6 9 24 33 15 8 0 0 0 0 0 0 0 0 0 0 1 0 0 0
0 0 0 0 0 0 0 0 0 0 0 0 0 0 0 0 0 0 0 0 0 0 0 0 0 0 10 10 11 15 13 0 0 0 2 1 7 14 9 0 0 0 0 0 0 0 0 0 0 4 6 5 0 0
0 0 0 0 0 0 0 0 0 0 0 0 0 0 0 0 0 0 0 0 0 0 0 0 0 0 0 1 4 0 0 0 0 0 2 0 0 0 0 0 0 0 0 0 0 0 0 0 0 0 0 0 5 1
0 0 0 0 0 0 0 0 0 0 0 0 0 0 0 0 0 0 1 0 0 0 0 0 0 0 0 0 0 0 0 0 0 0 0 0 0 0 0 0 0 0 0 0 0 0 0 0 0 0 0 0 2 5
CIN
-0 -0 -0 -0 -0 -0 -0 -0 -0 -0 -0 -0 -0 -0 -0 -0 -0 -0 -0 -0 -0 -0 -0 -0 -0 -0 -0 -0 -0 -0 -0 -0 -0 -0 -0 -0 -0 -0 -0 -0 -0 -0 -0 -0 -0 -0 -0 -0 -0 -39 -0 -0 -0 -0
-0 -0 -0 -0 -0 -0 -0 -0 -0 -0 -0 -0 -0 -1 -0 -0 -0 -0 -0 -0 -0 -0 -0 -0 -0 -0 -0 -0 -0 -0 -0 -0 -0 -0 -0 -0 -0 -0 -0 -0 -0 -0 -0 -40 -135 -7 -0 -0 -0 -0 -0 -0 -0 -0
-0 -0 -0 -0 -0 -0 -0 -0 -0 -0 -0 -0 -0 -0 -0 -0 -0 -0 -0 -0 -0 -0 -0 -0 -0 -0 -0 -0 -0 -0 -0 -0 -0 -0 -0 -0 -0 -0 -0 -0 -0 -0 -0 -0 -0 -0 -0 -0 -0 -0 -0 -0 -0 -0
-0 -0 -0 -0 -0 -0 -0 -0 -0 -0 -0 -0 -0 -0 -0 -0 -0 -0 -0 -0 -0 -0 -0 -0 -0 -0 -0 -0 -0 -0 -0 -0 -0 -0 -0 -0 -0 -0 -0 -0 -0 -0 -0 -0 -0 -0 -0 -0 -0 -0 -0 -0 -0 -0
-0 -0 -0 -0 -0 -0 -0 -0 -0 -0 -0 -0 -0 -0 -0 -0 -0 -0 -0 -0 -0 -0 -0 -0 -0 -0 -0 -0 -0 -0 -0 -0 -0 -0 -0 -0 -0 -0 -0 -0 -0 -0 -0 -0 -0 -0 -0 -0 -0 -0 -0 -0 -0 -0
-0 -0 -0 -0 -0 -0 -0 -0 -0 -0 -0 -0 -0 -0 -0 -0 -0 -0 -0 -0 -0 -0 -0 -0 -0 -0 -0 -0 -0 -0 -0 -0 -0 -0 -0 -0 -0 -0 -0 -0 -0 -0 -0 -0 -0 -0 -0 -0 -0 -0 -0 -0 -0 -0
-0 -0 -0 -0 -0 -0 -0 -0 -0 -0 -0 -0 -0 -0 -0 -0 -0 -0 -0 -0 -0 -0 -0 -0 -0 -0 -0 -0 -0 -0 -0 -0 -0 -0 -0 -0 -0 -0 -0 -0 -0 -0 -0 -0 -0 -0 -0 -0 -0 -0 -0 -0 -0 -0
-0 -0 -0 -0 -0 -0 -0 -0 -0 -0 -0 -0 -0 -0 -0 -0 -0 -0 -0 -0 -0 -0 -0 -0 -0 -0 -0 -0 -0 -0 -0 -0 -0 -0 -0 -0 -0 -0 -0 -0 -0 -0 -0 -0 -0 -0 -0 -0 -0 -0 -0 -0 -0 -0
-0 -0 -0 -0 -0 -0 -0 -0 -0 -0 -0 -0 -0 -0 -0 -0 -0 -0 -0 -0 -0 -0 -0 -0 -0 -0 -0 -0 -0 -0 -0 -0 -0 -0 -0 -0 -0 -0 -0 -0 -0 -0 -0 -0 -0 -0 -0 -0 -0 -0 -0 -0 -0 -0
-0 -0 -0 -0 -0 -0 -0 -0 -0 -0 -0 -0 -0 -0 -0 -0 -0 -0 -0 -0 -0 -0 -0 -0 -0 -0 -0 -0 -0 -0 -0 -10 -0 -0 -0 -0 -0 -0 -0 -0 -0 -0 -0 -0 -0 -0 -0 -0 -0 -0 -0 -0 -0 -0
-0 -0 -0 -0 -0 -0 -0 -0 -0 -0 -0 -0 -0 -0 -0 -0 -0 -0 -0 -0 -0 -0 -0 -0 -0 -0 -0 -0 -0 -0 -29 -41 -14 -0 -0 -0 -0 -0 -0 -0 -0 -0 -0 -0 -0 -0 -0 -0 -0 -0 -0 -0 -0 -0
-0 -0 -0 -0 -0 -0 -0 -0 -0 -0 -0 -0 -0 -0 -0 -0 -0 -0 -0 -0 -0 -0 -10 -36 -0 -0 -0 -0 -0 -0 -21 -51 -9 -0 -20 -0 -0 -0 -0 -0 -0 -0 -0 -0 -0 -0 -0 -0 -0 -0 -0 -0 -0 -0
-0 -0 -0 -0 -0 -0 -0 -0 -0 -0 -0 -0 -0 -0 -0 -0 -0 -0 -0 -2 -0 -42 -37 -31 -26 -72 -60 -0 -0 -29 -13 -2 -0 -22 -0 -0 -4 -0 -0 -0 -0 -0 -0 -0 -0 -0 -0 -0 -0 -0 -0 -0 -0 -0
-0 -0 -0 -0 -0 -0 -0 -0 -0 -0 -0 -0 -0 -0 -0 -0 -0 -0 -0 -15 -38 -26 -29 -39 -27 -30 -71 -21 -49 -11 -31 -23 -0 -0 -0 -0 -0 -0 -0 -0 -0 -0 -0 -0 -0 -0 -0 -0 -0 -0 -0 -0 -0 -0
-0 -0 -0 -0 -0 -0 -0 -0 -0 -0 -0 -0 -0 -0 -0 -0 -0 -21 -0 -38 -35 -84 -73 -51 -14 -61 -37 -22 -26 -19 -9 -4 -0 -0 -0 -18 -0 -0 -0 -0 -0 -0 -0 -0 -0 -0 -0 -0 -0 -0 -0 -0 -0 -0
-0 -0 -0 -0 -0 -0 -0 -0 -0 -0 -0 -0 -0 -0 -0 -0 -0 -0 -0 -0 -75 -26 -45 -21 -27 -19 -5 -26 -7 -0 -7 -0 -0 -54 -112 -0 -109 -41 -0 -0 -0 -0 -0 -0 -0 -0 -0 -0 -0 -0 -0 -0 -0 -0
-0 -0 -0 -0 -0 -0 -0 -0 -0 -0 -0 -0 -0 -0 -0 -0 -0 -0 -0 -31 -61 -36 -12 -8 -13 -3 -0 -0 -3 -10 -9 -43 -69 -65 -76 -72 -59 -0 -0 -0 -0 -0 -0 -0 -0 -0 -0 -0 -0 -0 -0 -0 -0 -0
-0 -0 -1 -0 -0 -0 -0 -2 -9 -1 -0 -0 -0 -0 -0 -0 -0 -0 -0 -0 -0 -10 -15 -9 -14 -6 -3 -17 -0 -48 -59 -11 -20 -89 -25 -27 -33 -95 -93 -0 -0 -0 -0 -0 -0 -0 -0 -0 -0 -1 -0 -0 -0 -0
-0 -0 -0 -1 -0 -0 -0 -0 -0 -0 -9 -14 -15 -0 -0 -0 -0 -0 -0 -0 -0 -0 -8 -9 -8 -5 -0 -0 -27 -36 -49 -53 -59 -4 -54 -34 -54 -96 -0 -0 -0 -0 -0 -0 -0 -0 -0 -0 -0 -16 -0 -0 -0 -0
-0 -0 -11 -7 -0 -0 -0 -2 -1 -0 -3 -4 -0 -0 -0 -0 -0 -0 -0 -0 -0 -5 -1 -3 -5 -8 -51 -13 -33 -42 -39 -0 -5 -0 -24 -34 -56 -52 -30 -0 -0 -0 -0 -0 -0 -0 -0 -0 -0 -12 -3 -0 -44 -30
-0 -0 -0 -0 -0 -0 -0 -0 -0 -0 -4 -10 -0 -0 -0 -0 -0 -0 -0 -0 -0 -2 -0 -0 -7 -17 -37 -37 -37 -54 -54 -49 -1 -0 -42 -44 -69 -68 -64 -0 -85 -95 -30 -0 -0 -0 -0 -0 -0 -87 -74 -70 -82 -26
-0 -1 -0 -0 -0 -0 -0 -0 -0 -0 -0 -0 -0 -0 -0 -0 -0 -0 -0 -0 -0 -0 -0 -0 -0 -38 -22 -19 -19 -0 -21 -4 -0 -0 -0 -0 -58 -59 -49 -59 -76 -59 -64 -57 -17 -0 -0 -41 -82 -20 -0 -0 -18 -43
-0 -1 -22 -0 -0 -0 -2 -1 -0 -0 -8 -3 -13 -12 -15 -0 -11 -7 -23 -0 -0 -0 -0 -0 -0 -0 -0 -0 -0 -1 -38 -0 -0 -0 -0 -0 -0 -10 -81 -57 -69 -51 -47 -52 -89 -64 -14 -0 -0 -0 -25 -64 -57 -50
-0 -0 -8 -9 -0 -2 -0 -4 -11 -5 -1 -1 -0 -0 -5 -0 -23 -7 -2 -7 -30 -32 -36 -0 -0 -0 -0 -0 -0 -0 -2 -25 -0 -0 -0 -0 -0 -67 -0 -94 -89 -93 -81 -83 -70 -67 -24 -0 -0 -0 -16 -13 -0 -28
-4 -1 -0 -1 -0 -0 -0 -0 -0 -0 -0 -0 -0 -1 -0 -8 -2 -2 -2 -5 -0 -1 -6 -30 -20 -0 -0 -0 -0 -0 -2 -1 -54 -19 -0 -0 -0 -0 -2 -1 -0 -84 -143 -88 -63 -61 -53 -0 -74 -45 -0 -0 -8 -0
-0 -0 -1 -0 -0 -0 -1 -0 -1 -0 -0 -0 -8 -4 -1 -1 -0 -0 -0 -1 -2 -1 -3 -0 -0 -47 -47 -41 -0 -17 -40 -22 -3 -0 -0 -0 -0 -0 -16 -49 -18 -15 -0 -0 -35 -54 -55 -0 -0 -52 -17 -0 -0 -0
-0 -1 -9 -21 -0 -0 -0 -1 -13 -15 -4 -0 -0 -1 -1 -0 -0 -0 -6 -12 -0 -1 -0 -0 -0 -0 -33 -72 -86 -90 -107 -0 -87 -82 -35 -0 -0 -0 -0 -0 -24 -9 -0 -0 -4 -63 -42 -45 -41 -52 -29 -0 -0 -0
-0 -2 -1 -1 -1 -0 -3 -1 -4 -13 -0 -10 -2 -0 -0 -0 -3 -4 -0 -0 -0 -0 -0 -0 -0 -0 -0 -0 -99 -134 -125 -10 -0 -0 -0 -0 -0 -0 -0 -0 -0 -0 -0 -0 -0 -31 -65 -52 -48 -43 -55 -55 -36 -0
-0 -3 -1 -2 -2 -0 -1 -1 -1 -11 -22 -11 -0 -0 -0 -0 -0 -0 -0 -0 -0 -0 -0 -0 -0 -0 -16 -20 -4 -0 -0 -0 -15 -0 -0 -23 -25 -26 -45 -113 -0 -0 -0 -0 -0 -0 -68 -57 -37 -37 -47 -52 -54 -69
-0 -0 -0 -0 -0 -0 -0 -0 -0 -0 -0 -0 -0 -0 -0 -0 -0 -0 -0 -0 -0 -0 -0 -0 -0 -0 -72 -83 -79 -100 -149 -97 -217 -88 -6 -17 -13 -26 -57 -67 -0 -0 -0 -0 -0 -0 -0 -0 -0 -0 -24 -0 -0 -0
-0 -0 -0 -0 -0 -0 -0 -0 -0 -0 -0 -0 -0 -0 -0 -0 -0 -0 -0 -0 -0 -0 -0 -0 -0 -0 -104 -82 -82 -70 -58 -0 -0 -6 -40 -29 -72 -64 -60 -9 -39 -0 -0 -0 -0 -0 -0 -0 -0 -74 -62 -62 -0 -0
-0 -0 -0 -0 -0 -0 -0 -0 -0 -0 -0 -0 -0 -0 -0 -0 -0 -0 -0 -0 -0 -0 -0 -0 -0 -0 -0 -78 -152 -0 -0 -2 -0 -0 -104 -0 -0 -1 -5 -0 -0 -0 -0 -0 -0 -0 -0 -0 -0 -0 -0 -5 -74 -40
-0 -0 -0 -0 -0 -0 -0 -0 -0 -0 -19 -0 -0 -0 -0 -0 -0 -0 -17 -0 -0 -0 -0 -0 -0 -0 -0 -0 -0 -0 -0 -0 -0 -0 -0 -0 -0 -0 -0 -0 -0 -0 -0 -29 -0 -0 -0 -0 -0 -0 -0 -0 -89 -84
Wind_Speed
30 30 31 33 34 35 34 33 32 32 31 30 30 29 28 26 25 24 21 17 18 20 29 21 22 23 22 20 22 22 23 20 21 22 23 24 26 24 27 27 28 28 26 27 24 27 30 17 14 17 15 11 10 11
29 29 31 33 34 35 34 34 33 32 32 31 30 29 28 27 26 23 21 18 21 19 24 24 27 29 27 21 21 22 22 22 20 21 22 21 25 24 24 27 21 24 21 21 20 20 17 15 11 9 8 8 11 14
29 29 31 33 35 36 35 35 34 33 33 32 31 30 29 28 26 23 23 22 20 23 27 21 19 19 17 11 16 20 22 20 20 20 22 23 25 20 24 23 20 17 15 16 15 14 13 10 11 10 11 13 15 20
29 29 31 34 36 36 36 34 33 33 33 32 31 31 30 29 27 24 22 19 19 19 21 19 18 19 17 11 2 7 17 15 19 21 22 23 24 19 22 21 20 17 14 14 18 13 13 13 13 13 16 19 22 24
31 30 32 34 37 37 35 34 33 32 32 31 31 31 30 29 27 26 22 18 13 17 20 25 28 17 18 11 7 2 7 17 21 22 21 22 20 20 22 22 23 16 15 15 20 12 15 13 13 16 18 23 25 26
31 32 32 32 36 37 36 35 33 32 31 31 31 31 30 28 25 21 20 16 11 13 20 21 20 18 18 14 9 5 7 13 17 18 20 21 20 20 23 24 23 19 17 15 18 8 14 12 14 17 19 21 24 23
30 32 32 33 35 37 36 35 33 32 31 30 30 30 29 27 17 17 17 18 9 15 19 23 22 18 18 14 11 11 10 14 15 18 20 22 20 18 21 23 20 16 15 14 7 6 12 12 17 15 17 19 19 21
32 32 36 37 38 38 37 35 33 33 32 31 29 27 23 12 13 17 17 8 9 19 18 19 19 20 18 14 12 14 13 15 17 18 19 19 19 19 22 19 17 13 12 8 4 15 12 12 13 14 17 17 20 22
34 35 33 34 38 38 37 36 34 33 32 31 28 17 17 16 15 16 19 12 8 18 19 16 18 16 20 16 14 14 14 14 17 17 19 17 18 19 20 17 10 7 9 8 9 12 10 10 11 13 15 17 21 24
33 37 35 35 35 38 36 35 35 33 33 29 22 20 18 17 23 18 16 16 15 16 16 16 16 19 20 19 15 15 15 14 17 17 15 16 22 21 21 18 12 7 10 3 7 13 14 14 13 14 14 16 20 24
33 36 35 34 37 38 36 34 33 32 25 23 24 21 22 25 18 17 16 15 14 16 14 14 12 16 16 16 17 15 14 15 16 14 16 19 22 22 20 15 9 5 5 7 11 10 10 14 13 15 17 19 21 23
26 27 26 31 37 37 34 31 30 26 25 27 27 26 22 19 17 16 15 15 13 14 13 13 15 14 18 16 16 15 14 14 14 15 16 19 17 19 14 9 6 6 8 10 14 16 17 16 18 19 20 20 21 23
26 27 29 31 35 34 32 28 28 30 29 21 20 19 18 17 16 15 14 14 14 14 13 15 17 17 17 16 15 15 13 12 19 16 17 19 17 9 6 6 7 10 12 14 16 19 21 21 19 17 18 20 22 24
30 30 27 30 35 31 25 26 28 28 23 22 21 22 16 15 16 13 15 16 17 18 15 17 17 17 17 16 15 15 14 16 15 16 18 19 9 5 5 7 9 12 14 16 20 23 24 22 21 19 19 20 23 26
28 29 26 27 22 25 25 27 28 22 20 20 18 19 18 17 16 16 18 16 17 16 16 17 18 18 16 15 14 15 14 12 13 17 19 19 9 7 9 12 14 15 17 21 24 25 24 23 21 21 21 22 22 23
27 28 20 24 26 27 27 27 21 19 19 17 15 17 17 17 17 17 18 19 18 17 17 17 18 18 15 14 13 10 13 12 18 20 18 12 10 10 12 11 14 17 21 23 23 23 23 23 21 21 21 20 18 18
25 19 23 27 29 28 28 20 19 17 16 17 18 18 19 22 21 22 20 22 20 19 19 15 14 14 15 14 15 13 13 20 23 16 12 15 12 9 11 13 16 18 19 19 20 22 22 23 22 21 19 16 16 17
20 24 28 29 29 28 18 16 16 17 18 17 18 18 16 18 22 25 23 23 23 20 17 17 16 13 13 13 14 15 18 20 19 18 17 13 15 11 11 14 15 17 18 18 19 21 23 23 23 21 16 13 14 12
25 30 30 29 24 20 19 17 14 18 17 20 19 20 22 25 25 25 25 26 23 20 20 17 14 14 16 15 17 17 18 19 18 18 15 10 10 10 12 14 14 15 17 19 20 21 22 23 23 20 16 14 12 13
27 27 26 19 15 17 18 17 17 20 20 19 20 22 22 22 23 22 20 18 15 17 15 15 18 19 15 13 10 14 18 19 18 19 16 10 9 11 11 13 13 14 15 17 19 20 21 22 22 21 18 15 16 17
20 16 20 15 13 13 17 18 16 16 20 20 21 24 24 21 20 20 23 17 15 18 20 20 20 15 17 20 17 18 22 20 17 18 17 15 14 9 10 11 12 13 15 15 18 21 19 20 21 22 19 13 16 15
15 18 16 14 14 14 14 12 14 18 19 19 22 17 20 21 19 17 14 14 18 18 18 16 13 14 13 10 12 25 22 22 25 23 19 7 8 7 8 8 10 11 12 13 15 16 17 18 19 19 20 10 8 8
17 15 13 12 13 14 15 14 15 15 17 17 18 17 15 15 16 16 17 15 18 19 20 23 25 16 11 36 34 30 21 24 29 27 18 7 11 21 9 8 10 11 11 12 13 14 14 14 15 15 15 19 19 16
14 14 15 15 12 15 15 15 14 16 16 16 16 18 17 15 18 16 16 18 19 22 23 24 23 26 23 24 30 34 32 26 29 25 20 15 25 22 22 16 11 13 13 11 12 12 14 16 16 15 14 15 16 18
16 15 13 13 13 13 13 12 11 12 13 14 15 15 15 16 15 15 17 19 21 22 21 18 18 23 27 28 31 33 29 23 29 31 30 28 27 25 24 17 13 16 11 11 13 14 16 15 15 16 16 16 16 18
15 13 12 13 12 11 11 11 11 11 9 9 10 10 15 15 17 18 16 18 17 15 18 19 18 17 18 21 24 23 22 10 4 35 33 27 24 23 23 14 10 22 12 12 14 16 17 16 15 15 15 16 18 20
14 12 10 8 8 11 11 11 11 10 10 14 15 15 16 16 16 16 15 15 16 18 18 18 20 21 22 22 20 19 18 16 21 26 22 27 31 25 19 17 17 20 15 15 16 16 17 16 16 15 16 16 15 14
11 13 10 15 17 14 13 13 11 12 14 15 16 15 15 16 16 17 18 17 17 19 21 21 23 24 25 24 24 24 24 24 25 26 28 28 28 25 22 21 21 21 21 14 14 14 15 16 16 16 14 16 18 15
11 13 15 15 16 16 14 12 11 12 12 10 11 20 19 19 20 22 23 24 22 18 16 15 17 17 21 23 23 24 23 22 19 7 9 8 22 25 20 22 25 25 22 16 14 13 13 12 11 12 11 9 11 14
14 14 14 15 14 14 13 12 11 11 10 9 12 24 27 27 25 24 24 24 23 19 17 16 15 17 16 19 18 16 16 22 25 21 1 17 19 20 6 24 25 23 8 8 5 8 7 3 4 8 8 8 8 8
15 16 15 14 13 13 12 12 12 13 15 17 16 20 24 25 23 19 17 16 19 23 21 18 17 19 18 23 24 13 11 14 13 16 21 27 22 20 20 16 5 9 6 7 8 6 4 5 4 2 3 7 10 10
16 16 16 15 13 11 10 12 14 14 12 12 13 15 16 17 17 17 17 18 16 20 22 19 18 18 17 21 24 22 19 14 16 17 17 19 18 14 17 16 3 4 4 5 6 6 5 4 4 13 19 10 15 2
16 16 15 13 13 13 15 16 16 15 12 10 13 18 18 16 12 13 16 18 15 16 18 21 21 19 19 21 23 20 19 19 18 18 17 17 17 12 10 6 3 4 3 4 4 4 5 5 4 4 9 16 18 19
Wind_Direction
358 357 354 350 344 336 332 324 319 315 314 314 314 314 315 315 317 322 318 325 321 308 284 297 289 283 283 284 281 285 288 290 291 284 283 285 286 291 294 296 296 293 290 286 287 286 285 301 300 284 301 315 313 312
357 356 352 347 341 334 326 324 321 318 314 309 308 308 309 311 314 321 316 321 314 314 297 300 289 279 275 280 286 287 287 290 294 291 291 295 292 297 296 294 304 295 300 294 291 293 308 305 307 319 330 328 319 317
355 353 348 342 336 327 321 319 316 314 312 309 306 303 304 304 307 314 311 315 319 311 298 305 305 297 295 205 276 283 287 289 291 297 294 294 293 299 292 294 303 307 317 306 301 297 306 317 319 323 318 319 322 320
355 353 346 336 327 321 314 309 308 306 306 304 302 299 299 299 299 307 313 325 322 319 308 308 310 302 309 320 244 227 295 300 304 301 295 293 292 297 295 299 299 305 308 302 302 297 303 306 310 316 316 317 317 321
355 354 346 337 324 317 310 304 302 302 300 297 295 294 292 293 294 299 308 314 333 322 312 295 284 305 305 321 336 318 288 293 297 299 299 295 298 298 296 297 293 301 300 296 296 293 301 299 307 313 314 314 318 316
354 352 352 346 328 314 310 303 300 298 295 293 290 288 287 290 301 315 311 320 338 338 316 307 309 304 304 313 327 331 316 310 306 306 303 299 301 301 297 294 295 292 295 300 305 294 303 310 312 315 317 322 317 319
352 349 351 349 340 319 310 301 297 295 293 290 286 282 277 287 326 319 315 316 355 331 316 302 298 311 308 311 320 320 321 316 315 311 303 298 301 301 295 292 304 300 300 303 319 322 309 309 311 319 327 324 327 326
344 346 339 337 334 323 314 302 296 294 292 291 287 283 301 1 338 310 318 1 348 318 315 313 307 305 320 312 314 318 322 313 314 315 313 308 308 299 299 300 296 298 303 305 302 309 314 317 322 327 326 328 327 327
338 338 342 341 331 321 310 310 298 295 294 294 293 344 338 334 329 325 322 352 344 313 310 316 312 317 310 315 317 324 325 325 317 312 308 312 309 305 308 302 295 277 286 287 296 313 321 320 329 329 326 326 325 325
337 331 335 337 335 318 304 305 303 295 296 302 331 323 323 326 298 329 331 324 323 315 313 314 317 306 313 315 322 328 329 327 323 320 326 315 304 305 304 304 306 278 294 296 301 304 310 318 323 327 326 327 327 330
336 332 332 331 327 317 303 298 304 304 308 314 314 313 315 303 322 321 323 323 322 317 323 325 332 324 321 318 318 332 335 335 326 327 324 321 311 311 311 302 311 287 298 303 312 324 327 326 326 324 324 326 329 333
341 342 341 333 325 312 300 296 304 322 325 306 302 308 317 312 313 313 318 325 327 327 333 336 332 340 323 322 321 332 332 338 330 335 331 324 328 322 324 323 322 320 314 311 315 322 326 326 323 322 322 325 329 332
342 340 337 333 322 314 292 286 300 304 310 323 318 322 321 310 309 314 317 326 326 325 334 335 330 332 329 326 328 336 339 333 321 327 323 321 324 336 352 335 323 317 318 318 322 322 323 323 328 329 326 327 330 330
342 340 342 333 301 302 290 287 298 313 314 301 305 297 313 314 312 317 311 308 310 316 330 331 333 327 326 326 336 342 345 336 337 335 333 336 351 14 345 327 324 320 324 323 321 319 319 322 325 326 327 328 327 326
346 343 347 331 338 302 288 281 293 325 318 306 308 304 303 304 303 312 310 313 313 325 331 329 328 324 324 331 338 337 344 348 355 341 340 344 32 15 322 316 321 325 328 324 322 322 323 324 325 324 325 325 327 329
345 340 359 345 314 299 291 292 324 331 311 310 317 314 315 309 300 303 306 305 314 318 327 326 326 326 330 335 340 346 335 338 317 333 344 23 21 339 320 344 345 337 330 329 330 330 329 328 328 327 326 329 336 339
344 349 342 328 303 288 288 329 334 332 324 310 301 311 305 301 299 295 300 301 308 310 314 321 327 331 332 335 333 332 327 291 285 341 359 323 353 58 343 355 354 351 346 347 347 342 343 340 339 336 336 342 343 339
346 332 316 311 299 304 348 344 334 329 319 317 311 311 316 309 299 293 294 296 297 301 306 308 317 319 323 328 329 329 305 296 316 316 328 312 297 0 17 16 19 8 8 6 1 1 359 358 355 351 351 356 351 360
330 295 290 296 320 339 344 340 337 329 326 319 316 313 308 300 298 299 297 292 292 294 298 304 311 307 301 307 310 313 303 302 306 302 314 347 51 73 51 28 30 23 19 15 14 10 8 5 5 3 17 17 25 57
287 274 302 338 351 346 339 333 329 319 322 327 325 319 317 312 307 305 305 306 301 297 293 292 287 291 300 311 315 309 297 285 292 291 300 327 3 17 36 33 33 28 24 26 26 21 22 27 32 41 40 38 52 63
352 16 351 17 13 1 345 341 344 345 333 331 327 322 318 321 318 312 301 301 299 294 289 287 287 288 291 294 292 289 278 283 293 293 293 300 329 11 28 34 32 43 45 43 35 30 42 49 59 71 48 29 51 56
14 360 8 12 7 6 4 8 357 342 337 335 331 341 331 327 327 329 327 311 301 298 296 293 279 272 278 283 285 273 275 272 259 261 274 23 43 47 88 64 65 67 89 78 60 56 63 73 86 89 94 343 315 321
356 11 21 27 17 10 2 9 358 357 350 348 346 347 350 344 336 337 327 325 316 312 303 290 279 281 203 240 252 260 271 263 254 255 279 351 340 258 120 101 105 106 104 103 88 92 105 107 113 112 127 165 147 161
8 15 9 7 18 5 5 2 1 356 354 352 353 345 344 347 329 332 325 318 313 308 304 284 276 260 269 264 250 239 242 255 242 256 280 302 251 200 209 165 126 144 152 95 104 108 117 127 122 109 108 116 121 152
356 6 12 6 13 16 20 29 33 35 26 17 6 6 3 348 343 330 315 305 290 293 298 304 281 251 237 240 232 229 247 259 252 242 247 236 228 243 212 167 148 173 132 125 137 142 149 130 128 136 139 142 147 153
0 17 22 22 26 42 70 68 89 83 89 97 107 160 213 194 210 218 231 266 259 299 299 283 275 269 264 251 241 247 253 272 236 222 233 255 249 185 189 154 136 218 140 147 151 154 156 149 139 134 142 151 165 185
11 22 44 58 78 264 130 142 158 153 156 159 177 186 198 207 203 188 244 258 261 281 276 269 257 254 247 247 259 268 276 277 259 244 259 233 204 178 165 158 165 186 149 137 143 152 160 159 157 161 170 175 171 165
52 43 67 267 198 161 158 155 136 121 133 144 176 187 200 210 237 255 268 252 263 277 269 265 262 250 236 231 236 234 232 233 237 233 227 225 223 175 172 179 182 196 198 162 158 155 158 161 166 168 169 187 196 180
124 158 195 194 189 178 157 134 138 142 128 119 157 231 235 240 257 267 260 265 268 248 245 246 257 256 230 226 223 216 223 230 238 270 104 110 160 177 165 189 211 221 206 181 174 168 164 157 155 166 166 154 172 188
177 134 140 165 150 151 146 136 146 160 158 166 196 245 244 246 250 252 248 250 248 234 229 240 233 213 252 232 235 246 241 216 202 230 54 140 157 166 102 257 247 222 138 146 124 343 344 110 102 132 134 145 152 148
171 121 140 146 153 163 176 191 202 210 215 219 210 220 231 255 265 253 231 229 216 221 226 222 213 194 172 204 197 248 271 258 278 277 261 225 199 181 184 170 82 353 44 95 101 94 35 358 329 341 133 160 179 184
141 134 137 142 152 176 206 119 83 82 100 125 146 123 146 206 250 282 293 295 259 203 208 219 198 219 240 225 208 232 252 291 291 286 282 278 271 159 173 174 16 17 67 88 86 62 42 124 161 306 302 189 203 166
167 164 156 165 163 133 112 101 105 107 174 205 175 143 139 147 224 258 291 307 273 253 241 212 210 208 241 243 238 260 275 283 286 284 302 314 307 319 320 340 54 117 101 43 33 55 102 92 83 4 333 316 320 327